Location: Unspecified
(0.0000°N, 0.0000°E)
Time: 11:30:15
(UTC+00:00)

SEEDS - Pass Details

Date: 02 October 2021
Orbit: 585 x 601 km, 97.6° (Epoch: 15 October)

Event Time Altitude Azimuth Distance (km) Brightness Sun altitude
Rises 03:10:17 0° 51° (NE) 2,836 ? -39.7°
Reaches altitude 10° 03:14:39 10° 95° (E) 1,937 ? -38.6°
Maximum altitude 03:15:10 10° 102° (ESE) 1,924 ? -38.5°
Drops below altitude 10° 03:15:40 10° 109° (ESE) 1,937 ? -38.3°
Sets 03:20:01 0° 152° (SSE) 2,841 ? -37.3°
